Orbital Elements at Epoch 2459200.5 (2020-Dec-17.0) TDB
Reference: JPL 31 (heliocentric ecliptic J2000)
Element | Value | Uncertainty (1-sigma) | Units |
e | .1448238082314968 | 4.418e-08 | |
a | 3.162725281094272 | 1.6172e-08 | au |
q | 2.704687361496168 | 1.379e-07 | au |
i | 4.429043272658111 | 4.9369e-06 | deg |
node | 333.0918541027875 | 4.0496e-05 | deg |
peri | 29.53528005764256 | 4.2744e-05 | deg |
M | 12.92828890752121 | 1.143e-05 | deg |
tp | 2459126.721608951275 (2020-Oct-04.22160895) | 6.5387e-05 | TDB |
period | 2054.426611868903 5.62 | 1.5758e-05 4.314e-08 | d yr |
n | .1752313749832658 | 1.3441e-09 | deg/d |
Q | 3.620763200692375 | 1.8515e-08 | au |
|
| | Orbit Determination Parameters
Additional Information
|